Home   Weather   Gloucester   Past weeks
Flag for United Kingdom

Past Weather in Gloucester, England, United Kingdom — Yesterday and Last 2 Weeks

Now
54 °F

Partly sunny.


Feels Like: 50 °F
Forecast: 56 / 46 °F
Wind: 10 mph from Southwest

Location: Staverton Private

Current Time: Mar 22, 2019 at 12:49:41 pm

Latest Report: Mar 22, 2019 at 11:50 am


Visibility: N/A

Pressure: 30.33 "Hg

Humidity: 72%

Dew Point: 45 °F

Location of GloucesterLocation

Past Weather in Gloucester — Graph

°F

Gloucester Temperature Yesterday

Maximum temperature yesterday: 55 °F (at 1:50 pm)
Minimum temperature yesterday: 48 °F (at 7:50 am)
Average temperature yesterday: 53 °F

High & Low Weather Summary for the Past Weeks

 TemperatureHumidityPressure
High57 °F (Mar 14, 1:50 pm)100% (Mar 21, 8:20 am)30.54 "Hg (Mar 21, 8:20 am)
Low36 °F (Mar 10, 5:20 pm)43% (Mar 10, 1:50 pm)29.24 "Hg (Mar 7, 11:20 am)
Average50 °F74%29.95 "Hg
* Reported Mar 7 11:20 am — Mar 22 11:20 am, Gloucester. Weather by CustomWeather, © 2019

Note: Actual official high and low records may vary slightly from our data, if they occured in-between our weather recording intervals... More about our weather records

Advertising

Gloucester Weather History for the Previous 24 Hours

Scroll right to see more
 ConditionsComfort  
Time TempWeatherWind HumidityBarometerVisibility
11:20 am
Fri, Mar 22
54 °FPartly sunny.12 mph72%30.33 "HgN/A
10:50 am52 °FPartly sunny.9 mph77%30.33 "HgN/A
10:20 am52 °FPartly sunny.10 mph77%30.33 "HgN/A
9:50 am52 °FPartly sunny.9 mph77%30.33 "HgN/A
9:20 am52 °FScattered clouds.9 mph77%30.33 "HgN/A
7:20 pm
Thu, Mar 21
54 °FPassing clouds.No wind82%30.45 "HgN/A
6:50 pm55 °FPassing clouds.No wind82%30.45 "HgN/A
6:20 pm54 °FScattered clouds.No wind88%30.45 "HgN/A
5:50 pm55 °FPartly sunny.No wind82%30.45 "HgN/A
5:20 pm55 °FPartly sunny.2 mph82%30.45 "HgN/A
4:50 pm55 °FPartly sunny.2 mph82%30.45 "HgN/A
4:20 pm55 °FBroken clouds.2 mph82%30.48 "HgN/A
3:50 pm55 °FPartly sunny.3 mph82%30.48 "HgN/A
3:20 pm55 °FBroken clouds.3 mph82%30.48 "HgN/A
2:50 pm55 °FBroken clouds.2 mph82%30.48 "HgN/A
2:20 pm55 °FBroken clouds.2 mph82%30.48 "HgN/A
1:50 pm55 °FPartly sunny.3 mph82%30.51 "HgN/A
1:20 pm54 °FPartly sunny.3 mph88%30.51 "HgN/A
12:50 pm54 °FPartly sunny.No wind88%30.51 "HgN/A
12:20 pm54 °FPartly sunny.No wind82%30.54 "HgN/A
Weather by CustomWeather, © 2019

See weather overview